This demonstration page uses our WeatherBlox Daily Observations layout. Learn more.

Left ArrowRight Arrow

39.51506, -84.39828

Hourly Observations for September 1, 2021

Temp ( °F °C ) Dew Point ( °F °C ) Humidity (%) Winds ( mph kmh ) Pressure ( in mb ) Visibility ( mi km ) Precip ( " mm )
12:15 am 00:15 Partly Cloudy with Light Rain 70 21 N/A N/A NNE 7 11 29.71 1006 10 16 N/A
12:35 am 00:35 Mostly Cloudy with Light Rain 68 20 N/A N/A NNE 7 11 29.71 1006 7 11 N/A
12:55 am 00:55 Cloudy with Light Rain 68 20 N/A N/A NNE 7 11 29.71 1006 10 16 N/A
1:15 am 01:15 Cloudy with Light Rain 70 21 N/A N/A NNE 9 15 29.70 1006 7 11 N/A
1:35 am 01:35 Cloudy with Light Rain 70 21 N/A N/A NNE 7 11 29.70 1006 7 11 N/A
1:55 am 01:55 Cloudy with Light Rain 70 21 N/A N/A N 6 9 29.70 1006 10 16 N/A
2:15 am 02:15 Cloudy with Light Rain 70 21 N/A N/A NNE 10 17 29.69 1005 10 16 N/A
2:35 am 02:35 Cloudy with Light Rain 70 21 N/A N/A NNE 12 19 29.69 1005 10 16 N/A
2:55 am 02:55 Mostly Cloudy with Light Rain 70 21 N/A N/A N 8 13 29.69 1005 10 16 N/A
3:15 am 03:15 Cloudy with Light Rain 68 20 N/A N/A N 15 24 29.69 1006 7 11 N/A
3:35 am 03:35 Cloudy with Light Rain 68 20 N/A N/A NNE 12 19 29.70 1006 7 11 N/A
3:55 am 03:55 Cloudy with Light Rain 66 19 N/A N/A NNE 15 24 29.71 1006 10 16 N/A
4:15 am 04:15 Cloudy with Light Rain 66 18.7 65 18.3 98 98 NNE 16 26 29.71 1006 10 16 N/A
4:35 am 04:35 Mostly Cloudy 65 18.2 64 17.6 96 96 NE 15 24 29.71 1006 10 16 N/A
4:55 am 04:55 Partly Cloudy 65 18.1 63 17.3 95 95 NNE 15 24 29.71 1006 10 16 N/A
5:15 am 05:15 Mostly Cloudy 65 18.1 64 17.5 96 96 NNE 12 19 29.71 1006 10 16 N/A
5:35 am 05:35 Cloudy 65 18.4 64 17.9 97 97 N 12 19 29.72 1006 10 16 N/A
5:55 am 05:55 Cloudy 65 18.5 65 18.1 98 98 NNE 8 13 29.72 1006 10 16 N/A
6:15 am 06:15 Partly Cloudy 64 18 64 18 100 100 NNE 6 9 29.73 1007 10 16 N/A
6:35 am 06:35 Partly Cloudy 65 18.2 64 18 99 99 NNE 8 13 29.73 1007 10 16 N/A
6:55 am 06:55 Clear 65 18.2 65 18.1 99 99 NE 7 11 29.73 1007 10 16 N/A
7:15 am 07:15 Partly Cloudy 65 18.2 65 18.1 99 99 NNE 6 9 29.74 1007 10 16 N/A
7:35 am 07:35 Partly Cloudy 65 18.5 65 18.2 98 98 N 7 11 29.75 1007 10 16 N/A
7:55 am 07:55 Sunny 65 18.5 65 18.2 98 98 NNE 8 13 29.75 1007 10 16 N/A
8:15 am 08:15 Sunny 66 18.9 65 18.4 97 97 N 8 13 29.76 1008 10 16 N/A
8:35 am 08:35 Sunny 67 19.5 65 18.6 95 95 N 12 19 29.76 1008 10 16 N/A
8:55 am 08:55 Sunny 68 20 65 18.6 92 92 N 9 15 29.75 1008 10 16 N/A
9:15 am 09:15 Sunny 69 20.8 65 18.5 87 87 N 15 24 29.75 1008 10 16 N/A
9:35 am 09:35 Sunny 70 20.9 65 18.3 85 85 N 14 22 29.76 1008 10 16 N/A
9:55 am 09:55 Sunny 70 21 65 18.3 85 85 N 12 19 29.77 1008 10 16 N/A
10:15 am 10:15 Sunny 70 21.3 66 18.7 85 85 N 9 15 29.78 1009 10 16 N/A
10:35 am 10:35 Sunny 72 22.3 64 18 77 77 N 13 20 29.79 1009 10 16 0.01 0.25
10:55 am 10:55 Sunny 73 22.7 64 17.9 74 74 N 16 26 29.80 1009 10 16 0.01 0.25
11:15 am 11:15 Sunny 73 22.9 64 17.9 74 74 N 16 26 29.81 1009 10 16 N/A
11:35 am 11:35 Partly Cloudy 75 23.8 65 18.5 72 72 N 14 22 29.81 1009 10 16 N/A
11:55 am 11:55 Mostly Cloudy 75 23.8 64 17.9 70 70 N 16 26 29.81 1009 10 16 N/A
12:15 pm 12:15 Partly Cloudy 76 24.3 65 18.2 69 69 N 12 19 29.80 1009 10 16 N/A
12:35 pm 12:35 Mostly Cloudy 77 24.9 64 18 66 66 N 14 22 29.80 1009 10 16 N/A
12:55 pm 12:55 Mostly Cloudy 77 25.2 64 18 64 64 N 15 24 29.81 1010 10 16 N/A
1:15 pm 13:15 Mostly Cloudy 77 25.1 64 17.7 64 64 NNE 14 22 29.81 1010 10 16 N/A
1:35 pm 13:35 Mostly Cloudy 78 25.5 65 18.2 64 64 N 17 28 29.81 1010 10 16 N/A
1:55 pm 13:55 Mostly Cloudy 78 25.4 65 18.2 64 64 NNE 14 22 29.81 1010 10 16 N/A
2:15 pm 14:15 Mostly Cloudy 78 25.5 64 17.5 61 61 N 15 24 29.81 1010 10 16 N/A
2:35 pm 14:35 Partly Cloudy 79 26 64 17.7 60 60 N 17 28 29.82 1010 10 16 N/A
2:55 pm 14:55 Partly Cloudy 78 25.4 63 17.4 61 61 N 15 24 29.82 1010 10 16 N/A
3:15 pm 15:15 Partly Cloudy 80 26.6 64 17.9 59 59 NNE 17 28 29.82 1010 10 16 N/A
3:35 pm 15:35 Mostly Cloudy 79 26 62 16.9 57 57 N 17 28 29.82 1010 10 16 N/A
3:55 pm 15:55 Mostly Cloudy 78 25.5 63 17.1 60 60 NNE 15 24 29.81 1010 10 16 N/A
4:15 pm 16:15 Partly Cloudy 78 25.8 63 17 58 58 N 15 24 29.82 1010 10 16 N/A
4:35 pm 16:35 Partly Cloudy 80 26.7 63 17.2 56 56 N 16 26 29.82 1010 10 16 N/A
4:55 pm 16:55 Sunny 79 26.2 62 16.8 56 56 N 15 24 29.82 1010 10 16 N/A
5:15 pm 17:15 Partly Cloudy 79 26 61 15.9 54 54 N 14 22 29.83 1010 10 16 N/A
5:35 pm 17:35 Sunny 79 25.9 61 16 54 54 N 15 24 29.84 1011 10 16 N/A
5:55 pm 17:55 Mostly Cloudy 79 26.2 61 16.1 54 54 NNE 10 17 29.84 1011 10 16 N/A
6:15 pm 18:15 Mostly Cloudy 78 25.5 59 15.1 53 53 N 12 19 29.84 1011 10 16 N/A
6:35 pm 18:35 Partly Cloudy 77 24.9 59 15.2 55 55 N 12 19 29.85 1011 10 16 N/A
6:55 pm 18:55 Sunny 76 24.6 58 14.5 53 53 N 8 13 29.86 1011 10 16 N/A
7:15 pm 19:15 Sunny 75 24 57 13.8 53 53 N 10 17 29.87 1011 10 16 N/A
7:35 pm 19:35 Sunny 74 23.3 57 13.7 55 55 N 9 15 29.88 1012 10 16 N/A
7:55 pm 19:55 Sunny 73 22.5 57 13.7 58 58 N 9 15 29.89 1012 10 16 0.01 0.25
8:15 pm 20:15 Clear 71 21.7 57 13.7 61 61 N 9 15 29.90 1013 10 16 N/A
8:35 pm 20:35 Clear 70 21 57 13.7 63 63 N 8 13 29.90 1013 10 16 N/A
8:55 pm 20:55 Clear 69 20.5 57 13.8 66 66 N 7 11 29.91 1013 10 16 N/A
9:15 pm 21:15 Clear 67 19.7 57 14 70 70 N 7 11 29.94 1014 10 16 N/A
9:35 pm 21:35 Clear 67 19.3 57 13.9 71 71 N 6 9 29.94 1014 10 16 N/A
9:55 pm 21:55 Clear 66 18.9 57 13.8 72 72 N 5 7 29.95 1014 10 16 N/A
10:15 pm 22:15 Clear 65 18.4 57 14 76 76 N 5 7 29.96 1015 10 16 N/A
10:35 pm 22:35 Clear 63 17.4 58 14.6 84 84 N 3 6 29.96 1015 10 16 N/A
10:55 pm 22:55 Clear 64 17.5 58 14.5 83 83 NNE 3 6 29.96 1015 10 16 N/A
11:15 pm 23:15 Clear 63 17.3 57 14 81 81 NNE 5 7 29.96 1015 10 16 N/A
11:35 pm 23:35 Clear 62 16.9 57 14.1 84 84 NNE 3 6 29.97 1015 10 16 0.01 0.25
11:55 pm 23:55 Clear 62 16.6 58 14.4 87 87 N N/A 29.98 1015 10 16 0.02 0.51

Powered by AerisWeather